Location: Bern
(46.9167°N, 7.4667°E)
Time: 04:41:25
(UTC+02:00)

N. Korean satellite - Visible Passes

Search period start: 21 October 2021 00:00
Search period end: 31 October 2021 00:00
Orbit: 450 x 495 km, 97.3° (Epoch: 20 October)

Date Brightness Start Highest point End Pass type
(mag) Time Alt. Az. Time Alt. Az. Time Alt. Az.
21 Oct 9.7 05:52:42 10° NE 05:55:06 16° E 05:57:29 10° SE visible
21 Oct 7.1 07:25:03 10° N 07:28:29 38° WNW 07:31:52 10° SW visible
22 Oct 6.5 06:56:48 10° NNE 07:00:29 85° WNW 07:04:07 10° SSW visible
22 Oct 10.3 19:09:10 10° WSW 19:10:36 12° W 19:12:03 10° WNW visible
23 Oct 7.9 06:28:51 10° NNE 06:32:22 42° E 06:35:50 10° S visible
24 Oct 9.4 06:01:19 10° NE 06:04:07 20° E 06:06:53 10° SE visible
25 Oct 6.5 07:05:45 10° N 07:09:23 66° WNW 07:12:58 10° SSW visible
26 Oct 7.4 06:37:40 10° NNE 06:41:17 55° E 06:44:50 10° S visible
26 Oct 9.8 18:48:31 10° SW 18:51:12 20° W 18:53:55 10° NW visible
27 Oct 9.0 06:09:57 10° NE 06:13:03 25° E 06:16:05 10° SSE visible
28 Oct 10.0 05:43:02 10° ENE 05:44:40 13° E 05:46:19 10° ESE visible
28 Oct 6.7 07:14:38 10° N 07:18:12 50° WNW 07:21:42 10° SSW visible
29 Oct 6.8 06:46:27 10° NNE 06:50:06 72° ESE 06:53:41 10° S visible
29 Oct 9.9 18:57:47 10° SW 19:00:04 16° W 19:02:23 10° NW visible
30 Oct 8.5 06:18:34 10° NNE 06:21:52 32° E 06:25:07 10° SSE visible
